Other Public Products
Issued by NWS Charleston, SC

Current Version | Previous Version | Graphics & Text | Print | Product List | Glossary On
Versions: 1 2 3 4 5 6 7 8 9 10 11 12 13 14 15 16 17 18 19 20 21 22 23 24 25 26 27 28 29 30 31 32 33 34 35 36 37 38 39 40 41 42 43 44 45 46 47 48 49 50
000 FPUS82 KCHS 191427 OPUCHS TEST...KCHS/KSAV Gateway Observations...TEST National Weather Service Charleston SC 900 AM EST SUN NOV 19 2017 NOTE: "fair" indicates few or no clouds below 12,000 feet with no significant weather and/or obstructions to visibility. SCZ050-WAZ558-NCZ071-TXZ119-213-PAZ071-DCZ001-FLZ074-172-MI076- NYZ176-178-MAZ016-IL014-TNZ027-NJZ106-GAZ044-MD014-191500- ...Gateway Observations for Charleston International... CITY SKY/WX TMP DP RH WIND PRES REMARKS Chas Airport PTSUNNY 61 56 83 W12 29.83R Seattle CLOUDY 40 33 76 SE9 29.99F WCI 34 Charlotte MOSUNNY 52 37 56 NW7 29.87R Dallas DFW CLEAR 45 35 68 NW6 30.36R Dallas Love MOSUNNY 45 34 65 NW5 30.37R Philladelphia MOSUNNY 51 34 52 W24G41 29.51R Wash National MOSUNNY 50 33 52 W21G30 29.67R Baltimore MOSUNNY 49 33 54 W23G32 29.62R Miami SUNNY 76 61 59 N3 29.99S Detroit FLURRIES 36 28 73 W14G22 29.82R WCI 27 Newark PTSUNNY 52 41 66 W23G32 29.34R Laguardia CLOUDY 54 40 59 W25G40 29.31R J F K CLOUDY 53 43 68 W22G41 29.34R Boston Logan RAIN 57 56 96 S13 29.14F FOG Ft. Lauderdale SUNNY 72 64 76 W5 29.98R Chicago O`Hare MOSUNNY 30 18 60 NW14 30.00R WCI 19 Chicago Midway MOSUNNY 30 19 63 NW14 30.01R WCI 19 Houston Bush MOSUNNY 50 39 66 N9 30.32R Houston Hobby MOSUNNY 52 37 56 N13 30.31R Nashville MOSUNNY 41 29 62 NW13 30.13R Atlanta MOSUNNY 45 34 65 N15G30 30.01R $$ GAZ044-118-TXZ119-213-NCZ071-DCZ001-MDZ014-506-PAZ021-071-NJZ106- NYZ176-178-MAZ106-OHZ011-021-055-MIZ076-KYZ091-ILZ014-INZ047- MNZ060-ONZ431-191500- ...Gateway Observations for Savannah International... CITY SKY/WX TMP DP RH WIND PRES REMARKS Savannah Arpt PTSUNNY 59 46 62 NW17 29.91R Atlanta MOSUNNY 45 34 65 N15G30 30.01R Charlotte MOSUNNY 52 37 56 NW7 29.87R Dallas DFW CLEAR 45 35 68 NW6 30.36R Houston Bush MOSUNNY 50 39 66 N9 30.32R Wash National MOSUNNY 50 33 52 W21G30 29.67R Wash Dulles PTSUNNY 48 34 58 W20G38 29.69R Baltimore MOSUNNY 49 33 54 W23G32 29.62R Philadelphia MOSUNNY 51 34 52 W24G41 29.51R Newark PTSUNNY 52 41 66 W23G32 29.34R Laguardia CLOUDY 54 40 59 W25G40 29.31R J F K CLOUDY 53 43 68 W22G41 29.34R Boston RAIN 57 56 96 S13 29.14F FOG Pittsburg FLURRIES 35 33 92 W13 29.76R WCI 26 Akron CLOUDY 37 28 70 W12G23 29.78R WCI 29 Cleveland CLOUDY 38 28 67 NW14G23 29.82R WCI 30 Cincinnati CLOUDY 38 32 79 W7 29.97R WCI 33 Columbus CLOUDY 38 34 87 W10 29.90S WCI 30 Detroit FLURRIES 36 28 73 W14G22 29.82R WCI 27 Chicago O`Hare MOSUNNY 30 18 60 NW14 30.00R WCI 19 Minneapolis PTCLDY 18 13 80 W6 30.08F WCI 10 Indianapolis CLOUDY 34 27 75 W13 30.01R WCI 25 Toronto Canada MOSUNNY 37 28 70 NW17G24 29.58R WCI 28 $$

USA.gov is the U.S. government's official web portal to all federal, state and local government web resources and services.